Location: Ku?niki
(51.4449°N, 17.8974°E)
Time: 08:26:34
(UTC+00:00)

EO-79 - Pass Details

Date: 09 July 2022
Orbit: 588 x 603 km, 98.0° (Epoch: 17 August)

Event Time Altitude Azimuth Distance (km) Brightness Sun altitude
Rises 23:13:33 0° 31° (NNE) 2,866 ? -16.2°
Reaches altitude 10° 23:16:57 10° 60° (ENE) 1,958 ? -16.1°
Maximum altitude 23:18:52 13° 87° (E) 1,777 ? -16.1°
Drops below altitude 10° 23:20:47 10° 114° (ESE) 1,953 ? -16.1°
Enters shadow 23:21:46 - 125° (SE) 2,160 ? -16.0°
